DECAYED

STARLINK-5393, 54832 (Decayed)

Orbit data source: Space-Track

STARLINK-5393, 54832 was a payload satellite owned by SpaceX/Seattle (US) in LEO that was launched on Wed, 28 Dec 2022 UTC via an FALCON 9 launch vehicle from the Air Force Eastern Test Range (AFETR). Payload-class satellites include a variety of spacecraft equipped with specific instruments for various scientific and technological missions. These include communications satellites like Starlink; space stations such as the ISS; scientific satellites like the Hubble; Earth observation satellites from companies like Planet Labs, Umbra, and HawkEye 360; GPS; miniature CubeSats for education and research; and military/defense satellites.

Not visible in the next 10 days
Identifier
54832, 2022-177N
Orbit
Decayed
Country
Flag of USUS
Related business
Manufacturer
SpaceX/Seattle
Mission
Decayed Commercial Communications
Bus & Motor
STARLINK, Unknown motor
Mass
305 kg wet, ~290 kg dry
Launch date (UTC)
2022-12-28 (3 years ago)
Launch vehicle
FALCON 9
Launch site
Air Force Eastern Test Range (AFETR)
Object type
Payload
Rocket body
Debris
Shape & HBR
Box + 1 Pan, 10.1 m
Radar Cross Section
13.562 m², Large (>1 m²)

Expand to show TLE details & history
Last TLE update: 8 months ago

TLE from 8 months ago
0 STARLINK-5393
1 54832U 22177N   25291.96768201  .07966652  93240-5  61942-3 0  9998
2 54832  42.9837 131.4866 0006084 292.9279  67.0971 16.39183987156236
Epoch: 2025-10-18T23:13Z
TLE epoch observation values (Epoch: 2025-10-18T23:13:27.725Z)
Latitude
-0.00003°
Longitude
115.42995°
Altitude
166.189 km
Speed
7.809 km/s
True Right ascension
08h 45m 56s
True Declination
0° 00' 00"
Sunlit
Object was in daylight at epoch
Visualization orbit readout
Latitude
Unknown
Longitude
Unknown
Altitude
Unknown
Speed
Unknown
Apparent Right ascension
Unknown
Apparent Declination
Unknown
Sunlit
N/A
Visualization observer readout
Local Sidereal Time
21:23:32
Azimuth
Unknown
Elevation
Unknown
Doppler factor
Unknown
Orbital elements
Apogee altitude
173.999 km
Perigee altitude
166.032 km
Semi-major axis
6,548.152 km
Eccentricity
0.00061
Inclination
42.9837°
RAAN
131.4866°
Arg. of periapsis
292.9279°
True anomaly
67.16134°
Mean anomaly
67.0971°
Eccentric anomaly
67.12922°
Mean motion
4.09605 °/min
Orbital period
87.89 mins
BSTAR
0.00061942
Loading maneuver chart data...
Computing Atmospheric mass density...
Loading historical data...
Loading historical data...
Loading historical data...
Loading historical data...
Loading historical data...
Loading historical data...
Loading historical data...

Documentation

Showing up to 5 results
|